Showing default

SERVIS 2, 36588

Orbit data source: Space-Track

SERVIS 2, 36588 is a payload satellite owned by USEF (JP) in SSO that was launched on Wed, 02 Jun 2010 UTC via an ROKOT launch vehicle from the Plesetsk Missile And Space Complex (PKMTR). Payload-class satellites include a variety of spacecraft equipped with specific instruments for various scientific and technological missions. These include communications satellites like Starlink; space stations such as the ISS; scientific satellites like the Hubble; Earth observation satellites from companies like Planet Labs, Umbra, and HawkEye 360; GPS; miniature CubeSats for education and research; and military/defense satellites.

Loading next visibility...
Identifier
36588, 2010-023A
Orbit
SSO
Country
Flag of JPJP / JPN
Related business
Manufacturer
MELCO
Mission
Commercial Technology
Bus & Motor
SERVIS, Unknown motor
Mass
740 kg wet, ~700 kg dry
Launch date (UTC)
2010-06-02 (16 years ago)
Launch vehicle
ROKOT
Launch site
Plesetsk Missile And Space Complex (PKMTR)
Object type
Payload
Rocket body
Debris
Shape & HBR
Box + 2 Pan, 5.1 m
Radar Cross Section
8.092 m², Large (>1 m²)

Expand to show TLE details & history
Last TLE update: 12 hours ago

TLE from 12 hours ago
0 SERVIS 2
1 36588U 10023A   26125.48244034 -.00000006  00000-0  10151-3 0  9999
2 36588 100.4288 313.8152 0017448  14.3696   2.6808 13.16050640765155
Epoch: 2026-05-05T11:34Z
TLE epoch observation values (Epoch: 2026-05-05T11:34:42.845Z)
Latitude
16.75682°
Longitude
-86.38068°
Altitude
1,188.727 km
Speed
7.267 km/s
True Right ascension
20h 42m 37s
True Declination
16° 40' 03"
Sunlit
Object was in daylight at epoch
Visualization orbit readout
Latitude
Unknown
Longitude
Unknown
Altitude
Unknown
Speed
Unknown
Apparent Right ascension
Unknown
Apparent Declination
Unknown
Sunlit
N/A
Visualization observer readout
Local Sidereal Time
07:12:37
Azimuth
Unknown
Elevation
Unknown
Doppler factor
Unknown
Orbital elements
Apogee altitude
1,210.445 km
Perigee altitude
1,184.01 km
Semi-major axis
7,575.365 km
Eccentricity
0.00174
Inclination
100.4288°
RAAN
313.8152°
Arg. of periapsis
14.3696°
True anomaly
2.69017°
Mean anomaly
2.6808°
Eccentric anomaly
2.68548°
Mean motion
3.29183 °/min
Orbital period
109.36 mins
BSTAR
0.00010151
Loading maneuver chart data...
Computing Atmospheric mass density...
Loading historical data...
Loading historical data...
Loading historical data...
Loading historical data...
Loading historical data...
Loading historical data...
Loading historical data...
Other satellites on launch #23 in the year 2010 (2010-06-02 UTC)

Documentation

Showing up to 5 results
|